Location: *
(23.3228°S, 53.0678°W)
Time: 07:09:37
(UTC+00:00)

Daily predictions for brighter satellites

Satellite Brightness Start Highest point End
(mag) Time Altitude Azimuth Time Altitude Azimuth Time Altitude Azimuth
Cosmos 1758 Rocket 4.5 21:55:34 10° NNW 21:59:59 57° W 22:04:26 10° S
CZ-4C R/B 3.8 21:53:16 10° NNE 22:00:13 29° ENE 22:06:49 10° SE
Cosmos 1934 Rocket 4.2 21:54:37 10° NNE 22:00:48 56° E 22:06:57 10° SSE
Cosmos 1943 Rocket 2.3 21:55:38 10° S 22:01:03 55° ESE 22:06:25 10° NNE
Cosmos 1703 3.8 22:03:03 10° NNE 22:06:36 35° E 22:10:11 10° SSE
BREEZE-M DEB (TANK) 1.8 22:04:26 10° SW 22:07:22 60° NW 22:09:32 10° NNE
NOAA 12 4.1 22:03:37 10° SSE 22:08:55 80° ENE 22:14:09 10° N
Cosmos 1535 Rocket 4.4 22:03:47 10° N 22:09:49 69° E 22:15:58 10° S
Cosmos 1570 Rocket 4.2 22:05:54 10° SSW 22:11:12 80° WNW 22:16:28 10° N
Delta 198 3.2 22:13:15 10° W 22:17:09 70° S 22:20:19 13° E
Cosmos 968 Rocket 3.4 22:13:56 10° N 22:19:06 72° ENE 22:24:17 10° SSE
Cosmos 1340 Rocket 4.4 22:17:15 10° SE 22:19:53 17° ESE 22:21:17 14° ENE
Cosmos 1455 3.3 22:16:47 10° SSE 22:20:01 24° E 22:22:50 12° NE
SAR-Lupe-2 3.5 22:16:54 10° NNE 22:20:28 80° ESE 22:24:06 10° S
Cosmos-2242 3.0 22:16:52 10° S 22:21:17 68° E 22:25:39 10° NNE
Cosmos 2208 Rocket 4.3 22:18:06 10° SSW 22:23:31 72° WNW 22:28:46 10° N
EO 1 Delta rocket 4.3 22:17:15 10° SSE 22:23:41 62° E 22:28:46 10° N
Cosmos 841 Rocket 3.4 22:18:38 10° SSW 22:23:51 81° ESE 22:29:02 10° NNE
Cosmos 1939 Rocket 4.1 22:23:20 10° SE 22:26:14 20° E 22:28:05 15° NE
Okean-O 4.0 22:23:02 10° S 22:27:17 44° WSW 22:31:30 10° NNW
COSMOS 2406 4.4 22:23:39 10° NE 22:27:32 19° E 22:31:26 10° ESE
SL-24 R/B 4.3 22:24:38 10° N 22:28:53 73° W 22:33:11 10° SSW
Cosmos 1354 Rocket 4.0 22:26:30 10° NNW 22:31:46 85° ENE 22:37:06 10° SSE
CSL-04 Rocket 3.8 22:28:23 10° SSE 22:33:52 55° ENE 22:39:17 10° N
Meteor 2-10 Rocket 4.2 22:28:50 10° SSE 22:34:14 38° E 22:38:46 13° NE
Cosmos 1242 Rocket 2.9 22:31:14 10° NNW 22:34:49 66° W 22:38:23 10° S
YAOGAN 6 3.3 22:40:07 10° S 22:43:49 57° WSW 22:47:28 10° NNW
CZ-2D R/B 3.5 22:41:34 10° SSE 22:45:14 42° E 22:48:45 11° N
GOES 2 Rocket 4.4 22:43:02 10° NNW 22:46:30 23° NNE 22:46:52 22° NE
NOAA 11 4.5 22:41:51 10° SSE 22:47:06 43° E 22:52:16 10° N
Cosmos 540 Rocket 3.8 22:46:16 10° SSW 22:51:23 65° WNW 22:56:28 10° N
Cosmos 1153 Rocket 4.5 22:45:28 10° N 22:51:32 59° E 22:57:45 10° SSE
Meteor 1-11 4.3 22:46:20 10° N 22:52:09 85° W 22:58:00 10° S
CZ-4 R/B 2.4 22:49:36 10° S 22:53:28 48° WSW 22:57:22 10° NNW
Envisat 4.4 22:49:34 10° S 22:54:20 41° WSW 22:59:05 10° NW
Cosmos 1777 Rocket 4.5 22:55:21 23° NNE 22:57:46 36° E 23:02:32 10° SE
GPS 2-15 Rocket1 3.4 22:55:17 10° WNW 23:00:03 54° N 23:01:22 40° NE
DMSP B5D2-2 4.3 23:01:26 35° ENE 23:03:01 46° ESE 23:08:01 10° S
BREEZE M DEB (TANK) 4.3 23:00:53 10° WSW 23:04:04 46° NW 23:10:18 16° NNE
Kakehashi 3.9 22:59:11 10° NW 23:07:10 55° NNE 23:09:25 35° E
CZ-2C R/B 3.5 23:08:05 29° ESE 23:08:05 29° ESE 23:12:12 10° SSE
Cosmos 2369 Rocket 3.9 23:08:54 10° SW 23:13:52 31° WNW 23:18:49 10° NNW
Hubble Space Telescope 2.8 23:10:42 10° NNW 23:12:06 17° NNW 23:12:06 17° NNW
YAOGAN 1 4.3 23:15:30 10° S 23:19:25 33° WSW 23:23:19 10° NW
Atlas 2A Centaur Rocket 4.4 22:22:55 10° WNW 23:20:46 78° SSW 23:25:12 30° ESE
Cosmos 1447 Rocket 4.4 23:15:27 10° S 23:21:39 69° E 23:23:43 43° NNE
USA 215 3.3 23:15:39 10° SE 23:22:16 83° SW 23:28:49 10° NW
Cosmos 1842 Rocket 3.8 23:26:07 10° SSW 23:30:27 64° W 23:31:00 58° NW
Cosmos 1459 Rocket 3.9 23:29:45 36° N 23:32:29 75° E 23:38:54 10° S
Mugunghwa Rocket 4.1 23:27:26 10° W 23:34:36 76° S 23:36:27 50° ESE
Cosmos 1656 Rocket 4.3 23:30:57 10° SSW 23:36:31 53° WNW 23:38:47 33° NNW
Ariane Rocket 3.2 23:31:55 10° S 23:37:00 70° WSW 23:40:10 23° NNW
Meteor 2-20 4.3 23:32:21 10° S 23:38:29 71° E 23:38:39 71° E
Cosmos 2221 3.4 23:41:12 10° SSW 23:44:31 47° SW 23:44:31 47° SW
Haruka 3.6 23:36:31 10° WSW 23:46:59 54° S 23:47:20 53° SSE
CZ-4C R/B 3.9 23:40:39 10° NW 23:48:41 49° WSW 23:56:02 10° SSE
